Location: G�kdere
(37.0328°N, 30.9000°E)
Time: 21:05:06
(UTC+00:00)

Lacrosse 4 Rocket - Pass Details

Date: 03 March 2021
Orbit: 537 x 620 km, 68.0° (Epoch: 18 April)

Event Time Altitude Azimuth Distance (km) Brightness Sun altitude
Rises 17:31:01 0° 199° (SSW) 2,794 5.1 -20.4°
Reaches altitude 10° 17:33:13 10° 197° (SSW) 1,912 4.2 -20.9°
Maximum altitude 17:37:30 70° 114° (ESE) 642 1.3 -21.7°
Enters shadow 17:37:53 65° 75° (ENE) 664 1.4 -21.8°
